Regional Weather Roundup
Issued by NWS Huntsville, AL

Home | Current Version | Previous Version | Text Only | Print | Product List | Glossary On
Versions: 1 2 3 4 5 6 7 8 9 10 11 12 13 14 15 16 17 18 19 20 21 22 23 24 25 26 27 28 29 30 31 32 33 34 35 36 37 38 39 40 41 42 43 44 45 46 47 48 49 50
000
ASUS44 KHUN 291910
RWRHUN

WEATHER ROUNDUP FOR THE TENNESSEE VALLEY
NATIONAL WEATHER SERVICE HUNTSVILLE AL
200 PM CDT MON MAY 29 2017

ALZ001>004-292000-
NORTHWEST ALABAMA

CITY           SKY/WX    TMP DP  RH WIND       PRES   REMARKS
COURTLAND HCN    N/A     77 N/A N/A W5          N/A
RUSSELLVILLE     N/A     77 N/A N/A MISG        N/A
SHOALS AIRPORT CLOUDY    79  67  66 N5        30.02F
SHOALS TVA RES   N/A     75 N/A N/A MISG        N/A
$$

ALZ005>007-016-292000-
NORTH CENTRAL ALABAMA

CITY           SKY/WX    TMP DP  RH WIND       PRES   REMARKS
CULLMAN AG STN   N/A     79 N/A N/A W5          N/A
DECATUR AP     CLOUDY    79  68  69 CALM      30.02F
HUNTSVILLE AP  CLOUDY    79  69  71 SW6       30.02F
MERIDIANVILLE  CLOUDY    79  61  53 CALM      30.02F
REDSTONE ARSN  CLOUDY    78  67  68 SW7       30.01F
VINEMONT AP    FAIR      80  66  62 S8        30.05F
$$

ALZ008>010-292000-
NORTHEAST ALABAMA

CITY           SKY/WX    TMP DP  RH WIND       PRES   REMARKS
ALBERTVILLE    PTSUNNY   81  73  78 SW5       30.02F
FORT PAYNE     CLOUDY    77  63  61 SW8       30.04S
SCOTTSBORO AP  CLOUDY    79  66  65 SW3       30.03F
SCOTTSBORO HCN   N/A     79 N/A N/A MISG        N/A
VALLEY HEAD      N/A     75 N/A N/A MISG        N/A
$$

TNZ076-096-097-292000-
SOUTHEASTERN MIDDLE TENNESSEE

CITY           SKY/WX    TMP DP  RH WIND       PRES   REMARKS
TULLAHOMA      CLOUDY    70  66  88 W3        30.06F
WINCHESTER     PTSUNNY   79  66  65 SW8         N/A
$$

...SURROUNDING SITES...

CITY           SKY/WX    TMP DP  RH WIND       PRES   REMARKS
ATLANTA        CLOUDY    80  67  64 S8        30.03F THUNDER
ANNISTON       LGT RAIN  71  68  90 W8        30.07R
BIRMINGHAM     CLOUDY    78  67  68 S7        30.04F
CHATTANOOGA    PTSUNNY   78  66  66 N3        30.03F
CORINTH        DRIZZLE   72  66  83 VRB7G15   30.02R
DALTON         CLOUDY    77  68  73 E6        30.03F
GADSDEN        CLOUDY    77  69  76 S8        30.04F
GOLDEN TRNGL   PTSUNNY   81  64  57 W9        29.98F
HALEYVILLE     FAIR      79  68  69 W8        30.04F
JACKSON TN     CLOUDY    83  59  44 CALM      30.00F
MEMPHIS        CLOUDY    85  62  46 W5        30.00F
NASHVILLE      PTSUNNY   80  62  54 S7        30.02F
OXFORD MS      FAIR      75  64  69 SW7       30.04S
ROME           PTSUNNY   79  70  74 VRB5      30.02F
SAVANNAH       PTSUNNY   79  66  65 CALM      29.99F
SELMER         MOSUNNY   77  66  69 CALM      30.00F
TUPELO         CLOUDY    79  65  62 S6        30.01F
TUSCALOOSA     MOSUNNY   81  66  60 MISG      30.00F
$$

...GULF COAST WEATHER...

CITY           SKY/WX    TMP DP  RH WIND       PRES   REMARKS
GULFPORT       MOSUNNY   84  71  65 S6        30.00F
PASCAGOULA     MOSUNNY   85  66  53 VRB6      30.02F
MOBILE         PTSUNNY   85  69  58 S8        30.02F
GULF SHORES    MOCLDY    82  76  80 S9        30.02F HX  90
PENSACOLA      MOSUNNY   84  75  74 S10       30.02F HX  92
DESTIN         PTSUNNY   84  82  94 VRB7      30.03F HX 100
PANAMA CITY    MOSUNNY   84  76  76 SW8       30.05F HX  93
APPALACHICOLA    N/A    N/A N/A N/A MISG      30.05F
$$




USA.gov is the U.S. government's official web portal to all federal, state and local government web resources and services.